TRA5043 EHAM-LGKO

Flight info

Callsign TRA5043
Flight time N/A
Altitude 35000
Route EDUPO Z739 MISGO DCT DOJOH DCT DODEN DCT NEGIX DCT DINKU DCT BESNI DCT GOMIG/N0442F370 DCT BEDOX DCT LURID DCT DOBOT DCT YULHU DCT VABEK UL603 OLOTA DCT DISOR DCT MES UN139 LURUS L995 KOPAR
Aircraft B738/M-SDE2E3FGHIJ1RWXYZ/LB1

Departure

Time 2026-05-06 12:30
Airport Amsterdam Airport Schiphol (EHAM)

Arrival

Time N/A
Airport Kos International Airport "Ippokratis" (LGKO)
Time Latitude Longitude Altitude Speed Heading
2026-05-06 12:05 52.30506 4.76551 -2 ft 0 kts 59°
2026-05-06 12:19 52.30495 4.76521 -2 ft 4 kts 62°
2026-05-06 12:19 52.30486 4.76482 -2 ft 4 kts 95°
2026-05-06 12:20 52.30490 4.76461 -2 ft 0 kts 136°
2026-05-06 12:23 52.30490 4.76462 -2 ft 0 kts 136°
2026-05-06 12:24 52.30478 4.76472 -2 ft 5 kts 152°
2026-05-06 12:24 52.30419 4.76524 -2 ft 12 kts 149°
2026-05-06 12:24 52.30344 4.76586 -2 ft 12 kts 181°
2026-05-06 12:24 52.30284 4.76497 -2 ft 12 kts 237°
2026-05-06 12:25 52.30240 4.76384 -2 ft 12 kts 238°
2026-05-06 12:25 52.30192 4.76258 -2 ft 16 kts 238°
2026-05-06 12:25 52.30123 4.76078 -2 ft 20 kts 238°
2026-05-06 12:25 52.30045 4.75874 -2 ft 22 kts 238°
2026-05-06 12:26 52.29957 4.75644 -2 ft 25 kts 238°
2026-05-06 12:26 52.29868 4.75410 -2 ft 22 kts 237°
2026-05-06 12:26 52.29853 4.75176 -2 ft 24 kts 304°
2026-05-06 12:26 52.29966 4.74964 -2 ft 25 kts 311°
2026-05-06 12:27 52.30080 4.74757 0 ft 24 kts 310°
2026-05-06 12:27 52.30185 4.74560 9 ft 23 kts 311°
2026-05-06 12:27 52.30286 4.74369 8 ft 23 kts 310°
2026-05-06 12:27 52.30393 4.74169 -2 ft 20 kts 311°
2026-05-06 12:28 52.30407 4.73973 -2 ft 15 kts 263°
2026-05-06 12:28 52.30407 4.73929 -2 ft 0 kts 272°
2026-05-06 12:28 52.30407 4.73924 -2 ft 1 kts 272°
2026-05-06 12:28 52.30408 4.73888 -3 ft 7 kts 273°
2026-05-06 12:29 52.30429 4.73764 -4 ft 14 kts 331°
2026-05-06 12:29 52.30545 4.73767 -4 ft 36 kts
2026-05-06 12:29 52.31114 4.73825 -2 ft 125 kts
2026-05-06 12:29 52.32204 4.73984 221 ft 179 kts
2026-05-06 12:30 52.33508 4.74121 858 ft 193 kts
2026-05-06 12:30 52.34808 4.74583 1559 ft 193 kts 27°
2026-05-06 12:30 52.36011 4.75550 2264 ft 192 kts 26°
2026-05-06 12:30 52.37245 4.76486 2794 ft 206 kts 26°
2026-05-06 12:31 52.38462 4.77865 3211 ft 220 kts 46°
2026-05-06 12:31 52.39517 4.79719 3889 ft 224 kts 46°
2026-05-06 12:31 52.40386 4.81817 4590 ft 228 kts 72°
2026-05-06 12:31 52.40304 4.84428 5241 ft 238 kts 108°
2026-05-06 12:32 52.39523 4.86851 5965 ft 244 kts 120°
2026-05-06 12:32 52.38557 4.89169 6625 ft 248 kts 121°
2026-05-06 12:32 52.37548 4.91488 7231 ft 253 kts 122°
2026-05-06 12:32 52.36527 4.93820 7818 ft 258 kts 122°
2026-05-06 12:33 52.35478 4.96228 8414 ft 262 kts 123°
2026-05-06 12:33 52.34423 4.98663 9062 ft 263 kts 123°
2026-05-06 12:33 52.33355 5.01135 9622 ft 269 kts 124°
2026-05-06 12:33 52.32275 5.03642 10219 ft 270 kts 124°
2026-05-06 12:34 52.31188 5.06172 10737 ft 275 kts 124°
2026-05-06 12:34 52.30079 5.08754 11223 ft 279 kts 124°
2026-05-06 12:34 52.28963 5.11354 11779 ft 283 kts 124°
2026-05-06 12:34 52.27823 5.14009 12238 ft 288 kts 125°
2026-05-06 12:35 52.26672 5.16691 12856 ft 287 kts 125°
2026-05-06 12:35 52.25520 5.19371 13349 ft 292 kts 125°
2026-05-06 12:35 52.24353 5.22086 13898 ft 293 kts 125°
2026-05-06 12:35 52.23185 5.24802 14429 ft 293 kts 126°
2026-05-06 12:36 52.21997 5.27560 14789 ft 299 kts 126°
2026-05-06 12:36 52.20833 5.30261 15428 ft 295 kts 126°
2026-05-06 12:36 52.19639 5.33027 15810 ft 301 kts 126°
2026-05-06 12:36 52.18441 5.35802 16359 ft 299 kts 126°
2026-05-06 12:37 52.17239 5.38581 16869 ft 300 kts 126°
2026-05-06 12:37 52.16037 5.41360 17359 ft 300 kts 126°
2026-05-06 12:37 52.14832 5.44140 17871 ft 300 kts 127°
2026-05-06 12:37 52.13634 5.46904 18357 ft 299 kts 127°
2026-05-06 12:38 52.12428 5.49681 18708 ft 302 kts 128°
2026-05-06 12:38 52.11209 5.52485 19068 ft 304 kts 128°
2026-05-06 12:38 52.09983 5.55302 19428 ft 306 kts 127°
2026-05-06 12:38 52.08746 5.58140 19821 ft 308 kts 128°
2026-05-06 12:39 52.07502 5.60992 20179 ft 310 kts 127°
2026-05-06 12:39 52.06250 5.63862 20537 ft 312 kts 127°
2026-05-06 12:39 52.04989 5.66749 20881 ft 314 kts 127°
2026-05-06 12:39 52.03716 5.69657 21222 ft 316 kts 128°
2026-05-06 12:40 52.02443 5.72566 21537 ft 318 kts 128°
2026-05-06 12:40 52.01163 5.75488 21865 ft 320 kts 128°
2026-05-06 12:40 51.99869 5.78435 22188 ft 321 kts 128°
2026-05-06 12:40 51.98569 5.81391 22512 ft 323 kts 127°
2026-05-06 12:41 51.97241 5.84335 22818 ft 324 kts 131°
2026-05-06 12:41 51.95787 5.87140 23110 ft 326 kts 133°
2026-05-06 12:41 51.94276 5.89910 23311 ft 330 kts 134°
2026-05-06 12:41 51.92741 5.92706 23520 ft 334 kts 134°
2026-05-06 12:42 51.91205 5.95522 23815 ft 333 kts 134°
2026-05-06 12:42 51.89681 5.98337 24128 ft 332 kts 133°
2026-05-06 12:42 51.88160 6.01154 24367 ft 333 kts 132°
2026-05-06 12:42 51.86633 6.03980 24606 ft 334 kts 132°
2026-05-06 12:43 51.85101 6.06815 24858 ft 335 kts 132°
2026-05-06 12:43 51.83561 6.09642 25089 ft 336 kts 133°
2026-05-06 12:43 51.82013 6.12472 25324 ft 336 kts 133°
2026-05-06 12:43 51.80464 6.15306 25553 ft 337 kts 133°
2026-05-06 12:44 51.78911 6.18143 25777 ft 337 kts 133°
2026-05-06 12:44 51.77355 6.20982 25990 ft 338 kts 133°
2026-05-06 12:44 51.75795 6.23829 26201 ft 339 kts 133°
2026-05-06 12:44 51.74236 6.26676 26434 ft 339 kts 133°
2026-05-06 12:45 51.72669 6.29538 26648 ft 341 kts 133°
2026-05-06 12:45 51.71101 6.32398 26882 ft 340 kts 132°
2026-05-06 12:45 51.67991 6.38066 27373 ft 338 kts 132°
2026-05-06 12:46 51.66431 6.40902 27549 ft 339 kts 132°
2026-05-06 12:46 51.64865 6.43745 27780 ft 338 kts 132°
2026-05-06 12:46 51.63296 6.46591 27904 ft 341 kts 132°
2026-05-06 12:46 51.61719 6.49445 28081 ft 342 kts 132°
2026-05-06 12:47 51.60138 6.52305 28184 ft 345 kts 132°
2026-05-06 12:47 51.58543 6.55188 28326 ft 346 kts 132°
2026-05-06 12:47 51.56950 6.58065 28621 ft 343 kts 132°
2026-05-06 12:47 51.55364 6.60928 28753 ft 344 kts 132°
2026-05-06 12:48 51.53767 6.63805 28932 ft 344 kts 132°
2026-05-06 12:48 51.52188 6.66647 29115 ft 343 kts 132°
2026-05-06 12:48 51.50590 6.69521 29173 ft 346 kts 132°
2026-05-06 12:48 51.48981 6.72413 29311 ft 347 kts 132°
2026-05-06 12:49 51.47372 6.75300 29419 ft 349 kts 132°
2026-05-06 12:49 51.44129 6.81113 29592 ft 351 kts 132°
2026-05-06 12:49 51.42507 6.84012 29795 ft 349 kts 132°
2026-05-06 12:50 51.40880 6.86916 29856 ft 350 kts 132°
2026-05-06 12:50 51.39206 6.89741 30003 ft 349 kts 135°
2026-05-06 12:50 51.37500 6.92420 30086 ft 349 kts 136°
2026-05-06 12:51 51.33966 6.97829 30137 ft 353 kts 137°
2026-05-06 12:51 51.30402 7.03292 30204 ft 357 kts 136°
2026-05-06 12:52 51.26822 7.08803 30423 ft 357 kts 137°
2026-05-06 12:52 51.25041 7.11549 30528 ft 356 kts 137°
2026-05-06 12:52 51.23254 7.14301 30537 ft 358 kts 137°
2026-05-06 12:52 51.21466 7.17054 30644 ft 357 kts 137°
2026-05-06 12:53 51.19675 7.19809 30725 ft 357 kts 137°
2026-05-06 12:53 51.16085 7.25320 30773 ft 360 kts 137°
2026-05-06 12:54 51.12478 7.30846 30906 ft 360 kts 137°
2026-05-06 12:54 51.08852 7.36389 30962 ft 363 kts 137°
2026-05-06 12:55 51.05175 7.41995 31044 ft 373 kts 137°
2026-05-06 12:55 51.03275 7.44887 31067 ft 384 kts 137°
2026-05-06 12:55 51.01317 7.47862 31191 ft 394 kts 137°
2026-05-06 12:55 50.99310 7.50910 31272 ft 405 kts 137°
2026-05-06 12:56 50.97249 7.54036 31367 ft 415 kts 137°
2026-05-06 12:56 50.92986 7.60490 31510 ft 432 kts 138°
2026-05-06 12:56 50.90793 7.63804 31619 ft 439 kts 138°
2026-05-06 12:57 50.88599 7.67118 31831 ft 443 kts 139°
2026-05-06 12:57 50.86338 7.70528 32201 ft 443 kts 139°
2026-05-06 12:57 50.84113 7.73877 32651 ft 440 kts 139°
2026-05-06 12:57 50.81893 7.77202 33085 ft 439 kts 140°
2026-05-06 12:58 50.79701 7.80464 33442 ft 439 kts 140°
2026-05-06 12:58 50.77478 7.83763 33760 ft 439 kts 140°
2026-05-06 12:58 50.75251 7.87063 34065 ft 438 kts 140°
2026-05-06 12:58 50.73034 7.90349 34368 ft 438 kts 140°
2026-05-06 12:59 50.70811 7.93640 34648 ft 438 kts 140°
2026-05-06 12:59 50.68585 7.96932 34763 ft 441 kts 140°
2026-05-06 12:59 50.66333 8.00258 34767 ft 444 kts 140°
2026-05-06 13:00 50.61845 8.06878 34768 ft 440 kts 141°
2026-05-06 13:00 50.57693 8.13904 34782 ft 440 kts 132°
2026-05-06 13:01 50.53920 8.21505 34771 ft 441 kts 131°
2026-05-06 13:01 50.50111 8.29134 34788 ft 447 kts 132°
2026-05-06 13:02 50.46182 8.36853 34767 ft 458 kts 132°
2026-05-06 13:02 50.42157 8.44709 34766 ft 464 kts 133°
2026-05-06 13:03 50.38106 8.52599 34761 ft 465 kts 133°
2026-05-06 13:03 50.33816 8.60135 34757 ft 463 kts 137°
2026-05-06 13:04 50.29407 8.67396 34757 ft 457 kts 137°
2026-05-06 13:04 50.25074 8.74531 34761 ft 451 kts 137°
2026-05-06 13:05 50.20769 8.81660 34771 ft 451 kts 137°
2026-05-06 13:05 50.17189 8.87600 34766 ft 452 kts 137°
2026-05-06 13:06 50.12880 8.94740 34763 ft 452 kts 137°
2026-05-06 13:06 50.08561 9.01876 34761 ft 453 kts 137°
2026-05-06 13:07 50.04235 9.09003 34768 ft 452 kts 137°
2026-05-06 13:07 49.99910 9.16107 34744 ft 453 kts 137°
2026-05-06 13:08 49.95576 9.23207 34767 ft 453 kts 137°
2026-05-06 13:08 49.91238 9.30292 34769 ft 453 kts 138°
2026-05-06 13:09 49.86892 9.37372 34767 ft 453 kts 138°
2026-05-06 13:09 49.82539 9.44442 34772 ft 454 kts 138°
2026-05-06 13:10 49.78179 9.51504 34767 ft 454 kts 138°
2026-05-06 13:10 49.73836 9.58521 34775 ft 454 kts 139°
2026-05-06 13:11 49.69458 9.65572 34780 ft 455 kts 139°
2026-05-06 13:11 49.65038 9.72672 34789 ft 456 kts 139°
2026-05-06 13:12 49.60640 9.79718 34795 ft 456 kts 139°
2026-05-06 13:12 49.56262 9.86712 34795 ft 456 kts 139°
2026-05-06 13:13 49.51849 9.93743 34793 ft 456 kts 140°
2026-05-06 13:13 49.47447 10.00738 34796 ft 455 kts 140°
2026-05-06 13:14 49.43041 10.07718 34798 ft 454 kts 140°
2026-05-06 13:14 49.38643 10.14667 34804 ft 454 kts 140°
2026-05-06 13:15 49.34240 10.21604 34805 ft 454 kts 140°
2026-05-06 13:15 49.29838 10.28524 34795 ft 453 kts 140°
2026-05-06 13:16 49.25432 10.35432 34800 ft 453 kts 140°
2026-05-06 13:16 49.21002 10.42263 34828 ft 452 kts 141°
2026-05-06 13:17 49.16479 10.48966 34850 ft 454 kts 142°
2026-05-06 13:17 49.11924 10.55679 34828 ft 455 kts 142°
2026-05-06 13:18 49.07384 10.62390 34820 ft 454 kts 142°
2026-05-06 13:18 49.02861 10.69074 34821 ft 452 kts 142°
2026-05-06 13:19 48.98340 10.75738 34818 ft 452 kts 142°
2026-05-06 13:19 48.93821 10.82379 34812 ft 451 kts 142°
2026-05-06 13:20 48.89300 10.89006 34799 ft 451 kts 142°
2026-05-06 13:20 48.84784 10.95608 34779 ft 451 kts 142°
2026-05-06 13:21 48.80265 11.02198 34769 ft 450 kts 143°
2026-05-06 13:21 48.75776 11.08726 34764 ft 451 kts 143°
2026-05-06 13:22 48.71242 11.15304 34779 ft 452 kts 143°
2026-05-06 13:22 48.66687 11.21896 34771 ft 454 kts 142°
2026-05-06 13:23 48.62765 11.29542 34774 ft 471 kts 125°
2026-05-06 13:23 48.59774 11.38386 34761 ft 473 kts 123°
2026-05-06 13:24 48.56815 11.47272 34770 ft 474 kts 124°
2026-05-06 13:24 48.53813 11.56105 34770 ft 474 kts 124°
2026-05-06 13:25 48.50769 11.64940 34770 ft 474 kts 124°
2026-05-06 13:25 48.47717 11.73748 34737 ft 474 kts 124°
2026-05-06 13:26 48.44688 11.82465 34771 ft 472 kts 125°
2026-05-06 13:26 48.41615 11.91281 34755 ft 472 kts 125°
2026-05-06 13:27 48.38562 12.00012 34745 ft 472 kts 125°
2026-05-06 13:27 48.35519 12.08685 34741 ft 472 kts 125°
2026-05-06 13:28 48.32455 12.17391 34742 ft 471 kts 126°
2026-05-06 13:28 48.29381 12.26094 34753 ft 472 kts 126°
2026-05-06 13:29 48.26296 12.34796 34759 ft 473 kts 126°
2026-05-06 13:29 48.23200 12.43505 34749 ft 473 kts 126°
2026-05-06 13:30 48.20098 12.52204 34750 ft 474 kts 126°
2026-05-06 13:30 48.16982 12.60916 34752 ft 474 kts 126°
2026-05-06 13:31 48.13809 12.69548 34751 ft 469 kts 131°
2026-05-06 13:31 48.09795 12.77046 34752 ft 460 kts 139°
2026-05-06 13:32 48.05607 12.84270 34745 ft 460 kts 139°
2026-05-06 13:32 48.01435 12.91512 34739 ft 460 kts 139°
2026-05-06 13:33 47.97281 12.98776 34742 ft 460 kts 139°
2026-05-06 13:33 47.93133 13.06041 34739 ft 460 kts 139°
2026-05-06 13:34 47.88982 13.13296 34739 ft 460 kts 139°
2026-05-06 13:34 47.84830 13.20531 34713 ft 459 kts 139°
2026-05-06 13:35 47.80681 13.27739 34740 ft 459 kts 139°
2026-05-06 13:35 47.76523 13.34941 34734 ft 459 kts 139°
2026-05-06 13:36 47.72375 13.42110 34755 ft 457 kts 139°
2026-05-06 13:36 47.68227 13.49257 34751 ft 457 kts 139°
2026-05-06 13:37 47.64060 13.56414 34729 ft 460 kts 139°
2026-05-06 13:37 47.59874 13.63587 34744 ft 462 kts 139°
2026-05-06 13:38 47.55672 13.70767 34810 ft 465 kts 139°
2026-05-06 13:38 47.51447 13.77978 34796 ft 462 kts 139°
2026-05-06 13:39 47.47234 13.85146 34812 ft 461 kts 139°
2026-05-06 13:39 47.43029 13.92276 34809 ft 460 kts 139°
2026-05-06 13:40 47.38824 13.99387 34826 ft 459 kts 139°
2026-05-06 13:40 47.34610 14.06493 34822 ft 461 kts 139°
2026-05-06 13:41 47.30372 14.13620 34848 ft 462 kts 139°
2026-05-06 13:41 47.26126 14.20747 34812 ft 463 kts 138°
2026-05-06 13:42 47.21874 14.27862 34854 ft 464 kts 138°
2026-05-06 13:42 47.17591 14.35010 34867 ft 467 kts 138°
2026-05-06 13:43 47.13273 14.42197 34860 ft 470 kts 138°
2026-05-06 13:43 47.08939 14.49394 34869 ft 471 kts 138°
2026-05-06 13:44 47.04588 14.56600 34869 ft 472 kts 137°
2026-05-06 13:44 47.00238 14.63787 34885 ft 470 kts 137°
2026-05-06 13:45 46.95899 14.70936 34888 ft 469 kts 137°
2026-05-06 13:45 46.89391 14.81618 34879 ft 469 kts 138°
2026-05-06 13:46 46.85068 14.88692 34870 ft 470 kts 138°
2026-05-06 13:46 46.80722 14.95786 34892 ft 467 kts 138°
2026-05-06 13:47 46.76388 15.02842 34894 ft 466 kts 138°
2026-05-06 13:47 46.72051 15.09882 34886 ft 467 kts 138°
2026-05-06 13:48 46.67708 15.16914 34892 ft 466 kts 138°
2026-05-06 13:48 46.63366 15.23926 34908 ft 466 kts 138°
2026-05-06 13:49 46.59009 15.30943 34919 ft 468 kts 138°
2026-05-06 13:49 46.54638 15.37965 34892 ft 469 kts 138°
2026-05-06 13:50 46.50264 15.44977 34904 ft 468 kts 138°
2026-05-06 13:50 46.45890 15.51971 34899 ft 468 kts 138°
2026-05-06 13:51 46.41511 15.58952 34924 ft 469 kts 138°
2026-05-06 13:51 46.37115 15.65942 34915 ft 469 kts 138°
2026-05-06 13:52 46.32714 15.72926 34923 ft 470 kts 138°
2026-05-06 13:52 46.28306 15.79903 34909 ft 470 kts 138°
2026-05-06 13:53 46.23848 15.86761 34920 ft 466 kts 140°
2026-05-06 13:53 46.19232 15.93294 34916 ft 464 kts 141°
2026-05-06 13:54 46.15389 15.98671 34935 ft 462 kts 141°
2026-05-06 13:54 46.10790 16.05151 34927 ft 462 kts 141°
2026-05-06 13:55 46.05458 16.12705 34922 ft 463 kts 141°
2026-05-06 13:55 46.01612 16.18151 34925 ft 463 kts 141°
2026-05-06 13:56 45.97015 16.24646 34935 ft 464 kts 141°
2026-05-06 13:56 45.92401 16.31147 34932 ft 464 kts 141°
2026-05-06 13:57 45.87826 16.37577 34998 ft 464 kts 141°
2026-05-06 13:57 45.85529 16.40801 35335 ft 460 kts 141°
2026-05-06 13:57 45.83243 16.44005 35652 ft 458 kts 141°
2026-05-06 13:58 45.80962 16.47197 35905 ft 459 kts 141°
2026-05-06 13:58 45.78672 16.50395 36114 ft 460 kts 141°
2026-05-06 13:58 45.76380 16.53593 36441 ft 459 kts 141°
2026-05-06 13:58 45.74103 16.56770 36833 ft 455 kts 141°
2026-05-06 13:59 45.69539 16.63118 36930 ft 462 kts 141°
2026-05-06 13:59 45.64925 16.69523 36904 ft 460 kts 141°
2026-05-06 14:00 45.60339 16.75877 36925 ft 459 kts 141°
2026-05-06 14:00 45.55758 16.82207 36925 ft 458 kts 141°
2026-05-06 14:01 45.51180 16.88518 36920 ft 457 kts 141°
2026-05-06 14:01 45.46601 16.94813 36909 ft 457 kts 141°
2026-05-06 14:02 45.42021 17.01096 36914 ft 457 kts 141°
2026-05-06 14:02 45.37427 17.07382 36919 ft 459 kts 141°
2026-05-06 14:03 45.32853 17.13629 36914 ft 460 kts 141°
2026-05-06 14:03 45.28201 17.19965 36910 ft 461 kts 141°
2026-05-06 14:04 45.23600 17.26219 36896 ft 461 kts 141°
2026-05-06 14:04 45.18964 17.32506 36905 ft 461 kts 141°
2026-05-06 14:05 45.14323 17.38786 36903 ft 461 kts 141°
2026-05-06 14:05 45.09725 17.45126 36904 ft 462 kts 140°
2026-05-06 14:06 45.05181 17.51550 36892 ft 462 kts 140°
2026-05-06 14:06 45.00629 17.57963 36907 ft 462 kts 140°
2026-05-06 14:07 44.96059 17.64360 36914 ft 462 kts 140°
2026-05-06 14:07 44.91486 17.70738 36903 ft 462 kts 140°
2026-05-06 14:08 44.86908 17.77109 36904 ft 462 kts 140°
2026-05-06 14:08 44.82322 17.83479 36909 ft 463 kts 140°
2026-05-06 14:09 44.77729 17.89842 36909 ft 464 kts 140°
2026-05-06 14:09 44.73107 17.96190 36891 ft 464 kts 140°
2026-05-06 14:10 44.68485 18.02495 36902 ft 463 kts 140°
2026-05-06 14:10 44.63861 18.08794 36890 ft 463 kts 140°
2026-05-06 14:11 44.59236 18.15084 36904 ft 464 kts 140°
2026-05-06 14:11 44.54599 18.21378 36920 ft 464 kts 140°
2026-05-06 14:12 44.49947 18.27678 36912 ft 465 kts 140°
2026-05-06 14:12 44.45288 18.33973 36907 ft 466 kts 140°
2026-05-06 14:13 44.40616 18.40272 36919 ft 467 kts 140°
2026-05-06 14:13 44.35930 18.46575 36917 ft 468 kts 140°
2026-05-06 14:14 44.31236 18.52875 36928 ft 468 kts 140°
2026-05-06 14:14 44.26779 18.59557 36926 ft 472 kts 134°
2026-05-06 14:15 44.22594 18.66608 36917 ft 471 kts 133°
2026-05-06 14:15 44.18427 18.73641 36929 ft 470 kts 133°
2026-05-06 14:16 44.14233 18.80602 36932 ft 469 kts 133°
2026-05-06 14:16 44.10033 18.87504 36930 ft 468 kts 133°
2026-05-06 14:17 44.05848 18.94355 36940 ft 468 kts 133°
2026-05-06 14:17 44.01629 19.01246 36941 ft 468 kts 133°
2026-05-06 14:18 43.97406 19.08132 36939 ft 468 kts 134°
2026-05-06 14:18 43.93185 19.14998 36947 ft 466 kts 133°
2026-05-06 14:19 43.88972 19.21835 36960 ft 466 kts 133°
2026-05-06 14:19 43.84741 19.28683 36950 ft 469 kts 133°
2026-05-06 14:20 43.80489 19.35550 36953 ft 471 kts 133°
2026-05-06 14:20 43.76215 19.42436 36933 ft 472 kts 133°
2026-05-06 14:21 43.71925 19.49332 36956 ft 474 kts 133°
2026-05-06 14:21 43.67618 19.56240 36946 ft 475 kts 133°
2026-05-06 14:22 43.63307 19.63137 36963 ft 474 kts 134°
2026-05-06 14:22 43.58989 19.70027 36947 ft 474 kts 133°
2026-05-06 14:23 43.54668 19.76907 36962 ft 475 kts 133°
2026-05-06 14:23 43.50340 19.83780 36959 ft 475 kts 133°
2026-05-06 14:24 43.46007 19.90646 36973 ft 475 kts 134°
2026-05-06 14:24 43.41665 19.97510 36962 ft 475 kts 133°
2026-05-06 14:25 43.37324 20.04354 36960 ft 475 kts 134°
2026-05-06 14:25 43.32980 20.11189 36977 ft 475 kts 134°
2026-05-06 14:26 43.28631 20.18015 36967 ft 475 kts 134°
2026-05-06 14:26 43.24311 20.24780 36982 ft 475 kts 134°
2026-05-06 14:27 43.19922 20.31636 36980 ft 476 kts 134°
2026-05-06 14:27 43.15583 20.38398 36978 ft 476 kts 134°
2026-05-06 14:28 43.11181 20.45244 36975 ft 476 kts 134°
2026-05-06 14:28 43.06809 20.52027 36995 ft 475 kts 134°
2026-05-06 14:29 43.02461 20.58759 36985 ft 476 kts 134°
2026-05-06 14:29 42.97973 20.65398 36983 ft 474 kts 137°
2026-05-06 14:30 42.93200 20.71601 37003 ft 474 kts 139°
2026-05-06 14:30 42.88386 20.77735 37005 ft 474 kts 139°
2026-05-06 14:31 42.83598 20.83910 37016 ft 474 kts 139°
2026-05-06 14:31 42.78822 20.90113 37016 ft 475 kts 139°
2026-05-06 14:32 42.74037 20.96327 37023 ft 476 kts 139°
2026-05-06 14:32 42.69273 21.02498 37019 ft 476 kts 139°
2026-05-06 14:33 42.64472 21.08700 37020 ft 477 kts 139°
2026-05-06 14:33 42.59664 21.14895 37017 ft 477 kts 139°
2026-05-06 14:34 42.54846 21.21089 37022 ft 477 kts 139°
2026-05-06 14:34 42.50021 21.27279 37026 ft 478 kts 139°
2026-05-06 14:35 42.45182 21.33473 37009 ft 479 kts 139°
2026-05-06 14:35 42.40334 21.39666 37011 ft 479 kts 139°
2026-05-06 14:36 42.35484 21.45847 36990 ft 479 kts 139°
2026-05-06 14:36 42.30663 21.51979 36987 ft 479 kts 139°
2026-05-06 14:37 42.25808 21.58141 36990 ft 479 kts 139°
2026-05-06 14:37 42.20933 21.64257 36994 ft 478 kts 140°
2026-05-06 14:38 42.15931 21.70170 36972 ft 478 kts 141°
2026-05-06 14:38 42.10901 21.76030 36969 ft 478 kts 141°
2026-05-06 14:39 42.05888 21.81899 36966 ft 478 kts 141°
2026-05-06 14:39 42.00877 21.87784 36973 ft 478 kts 141°
2026-05-06 14:40 41.95861 21.93670 36975 ft 479 kts 141°
2026-05-06 14:40 41.90872 21.99512 36977 ft 479 kts 141°
2026-05-06 14:41 41.85846 22.05382 36983 ft 479 kts 141°
2026-05-06 14:41 41.80819 22.11240 36989 ft 479 kts 141°
2026-05-06 14:42 41.75786 22.17092 36981 ft 479 kts 141°
2026-05-06 14:42 41.70752 22.22933 36998 ft 479 kts 141°
2026-05-06 14:43 41.65710 22.28770 36997 ft 479 kts 141°
2026-05-06 14:43 41.60662 22.34602 36993 ft 480 kts 141°
2026-05-06 14:44 41.55607 22.40430 37001 ft 480 kts 141°
2026-05-06 14:45 41.48011 22.49164 37004 ft 481 kts 140°
2026-05-06 14:45 41.42933 22.54988 37008 ft 482 kts 141°
2026-05-06 14:46 41.37879 22.60772 37008 ft 482 kts 141°
2026-05-06 14:46 41.32785 22.66588 36998 ft 483 kts 141°